Regional Weather Roundup
Issued by NWS Bismarck, ND

Home | Current Version | Previous Version | Text Only | Print | Product List | Glossary On
Versions: 1 2 3 4 5 6 7 8 9 10 11 12 13 14 15 16 17 18 19 20 21 22 23 24 25 26 27 28 29 30 31 32 33 34 35 36 37 38 39 40 41 42 43 44 45 46 47 48 49 50
000
ASUS43 KBIS 181120
RWRBIS

NWR BROADCAST TEXT
NATIONAL WEATHER SERVICE BISMARCK ND
500 AM CST THU DEC 18 2014

NOTE: "FAIR" INDICATES FEW OR NO CLOUDS BELOW 12,000 FEET WITH NO
SIGNIFICANT WEATHER AND/OR OBSTRUCTIONS TO VISIBILITY.


CITY           SKY/WX    TMP DP  RH WIND       PRES   REMARKS
WILLISTON      CLOUDY    21  17  84 S7        30.01F WCI  12
MINOT          FLURRIES  14  10  84 SE5       30.08F WCI   6
MINOT AFB      MOCLDY    13  13  98 SE5       30.08F WCI   6
BISMARCK       CLOUDY    16  14  92 SE10      30.11F WCI   4
DICKINSON      CLOUDY    20  17  88 S9        29.97F FOG     WCI   9
GARRISON         N/A     18  15  88 S10       30.06F WCI   6
HETTINGER ARPT CLOUDY    20  17  88 S8        29.99F WCI  10
JAMESTOWN      FLURRIES  13   9  84 SE7       30.17F WCI   3
BEACH          CLOUDY    23  23 100 S6        29.95F WCI  16
CARRINGTON     PTSUNNY   12  12 100 MISG      30.15F
CROSBY         CLOUDY    19  18  93 S9        30.01F WCI   9
HARVEY         FAIR      14  10  85 SE6       30.13F WCI   5
HAZEN          CLOUDY    18  14  86 S10       30.08S WCI   6
LINTON         CLOUDY    16  16 100 SE9       30.11F WCI   4
MANDAN         CLOUDY    16  14  93 SE6       30.09F WCI   7
OAKES            N/A     12  12 100 SE5       30.20F WCI   4
RUGBY          FAIR      10   7  85 SE9       30.13F WCI  -2
STANLEY        LGT SNOW  18  18 100 S9        30.01F WCI   6
TIOGA          CLOUDY    18  18 100 S9        30.03F WCI   6
WATFORD CITY   CLOUDY    19  18  93 SE9       29.99F WCI   9
$$

CITY           SKY/WX    TMP DP  RH WIND       PRES   REMARKS
GRAND FORKS    PTCLDY     4   1  88 SE3       30.27F
GRAND FORKS AF PTCLDY     1  -1  91 SE1       30.26F
DEVILS LAKE    PTCLDY     9   0  66 SE8       30.15F WCI  -4
FARGO          CLEAR      9   5  84 SE3       30.27F
CANDO          FAIR       3   0  85 SE7       30.17F WCI  -9
CAVALIER       FAIR       5   1  85 CALM      30.26F
GWINNER        MOSUNNY   14  12  92 MISG      30.22F
LANGDON        FAIR       1   0  92 S8        30.17F WCI -12
ROLLA          FAIR       3   1  92 S7        30.13F WCI  -9
WALHALLA         N/A      1   1 100 CALM      30.25F
$$

CITY           SKY/WX    TMP DP  RH WIND       PRES   REMARKS
ABERDEEN       CLOUDY    17  12  80 S6        30.20F WCI   9
MOBRIDGE       CLOUDY    19  17  92 SE9       30.08F FOG     WCI   8
BUFFALO          N/A     24  20  84 S10       29.89F WCI  14
RAPID CITY     CLOUDY    22  20  92 S6        29.99F WCI  14
GLASGOW        CLOUDY    23  20  88 E9        29.94F WCI  13
SIDNEY         MOCLDY    21  18  86 CALM      30.01F
WOLF POINT     CLOUDY    24  19  81 E3        29.99S
GLENDIVE       CLOUDY    23  19  86 CALM      29.97S
MILES CITY     CLOUDY    25  22  88 CALM      29.95S
BAKER          CLOUDY    25  24  96 E3        29.94F
$$

CITY           SKY/WX    TMP DP  RH WIND       PRES   REMARKS
BILLINGS       CLEAR     23  18  81 SW17      29.94F WCI   9
GREAT FALLS    CLOUDY    34  25  69 S13       29.89R
REGINA         CLOUDY    18  18 100 S12       29.98F WCI   5
ESTEVAN        FLURRIES  18  14  86 SE8       30.02F WCI   7
$$



USA.gov is the U.S. government's official web portal to all federal, state and local government web resources and services.